Powrót do katalogu

STARLINK-32892

AktywnyŁącznośćVLEO
NORAD 62893·PAYLOAD·🇺🇸 United States

Wystrzelony Feb 4, 2025 z Cape Canaveral Space Force Station

Loading…

Następne Przeloty (najbliższe 24 godziny)

TLE

ŚwieżeSource: CelesTrak SupGP

Epoka: Sep 15, 2026, 02:19 UTC

1 62893C 25024Q   26258.09701389  .00042568  00000+0  15417-2 0  2583
2 62893  43.0018 335.8726 0001489 263.5134   9.3890 15.27558586    18

Śledź STARLINK-32892 w czasie rzeczywistym z AllMySat

Download on the App Store